When you browse on this site, cookies collect data to enhance your experience and personalize the content and advertising you see.
Visit our Privacy Policy to learn more. By continuing to use the site, you agree to this use of cookies and data.
  • în România
  • Lista ţărilor
  • Pe 7 zile
  • Temperatura apei
  • Meteo pe hartă
  • Widget-uri
  • user-avatar
    Intrare

    Meteo pe oră la Totonicapán

    Astăzi, 21 August, Miercuri

    Timp Temperatura Precipitaţii Vânt Presiune Umiditate
    00:00 +10°C° 0.1 mm 1 m/s 553 mmHg 95%
    01:00 +10°C° 0 mm 1 m/s 553 mmHg 94%
    02:00 +10°C° 0 mm 1 m/s 553 mmHg 94%
    03:00 +10°C° 0 mm 1 m/s 553 mmHg 94%
    04:00 +10°C° 0 mm 1 m/s 553 mmHg 92%
    05:00 +10°C° 0 mm 1 m/s 553 mmHg 91%
    06:00 +10°C° 0 mm 1 m/s 553 mmHg 90%
    07:00 +12°C° 0 mm 1 m/s 554 mmHg 82%
    08:00 +15°C° 0 mm 1 m/s 556 mmHg 75%
    09:00 +18°C° 0 mm 1 m/s 557 mmHg 68%
    10:00 +18°C° 0.6 mm 1 m/s 557 mmHg 71%
    11:00 +19°C° 0.6 mm 1 m/s 557 mmHg 74%
    12:00 +18°C° 0.6 mm 2 m/s 557 mmHg 77%
    13:00 +17°C° 2.1 mm 2 m/s 557 mmHg 81%
    14:00 +17°C° 2.1 mm 2 m/s 556 mmHg 84%
    15:00 +16°C° 2.1 mm 2 m/s 555 mmHg 88%
    16:00 +15°C° 1.2 mm 1 m/s 555 mmHg 91%
    17:00 +14°C° 1.2 mm 1 m/s 554 mmHg 93%
    18:00 +13°C° 1.2 mm 1 m/s 554 mmHg 96%
    19:00 +13°C° 0.3 mm 1 m/s 554 mmHg 95%
    20:00 +12°C° 0.3 mm 1 m/s 554 mmHg 95%
    21:00 +11°C° 0.3 mm 1 m/s 554 mmHg 94%
    22:00 +11°C° 0 mm 1 m/s 554 mmHg 94%
    23:00 +11°C° 0 mm 1 m/s 554 mmHg 93%

    Mâine, 22 August, Joi

    Timp Temperatura Precipitaţii Vânt Presiune Umiditate
    00:00 +10°C° 0 mm 1 m/s 553 mmHg 93%
    01:00 +10°C° 0 mm 1 m/s 553 mmHg 93%
    02:00 +10°C° 0 mm 1 m/s 553 mmHg 93%
    03:00 +10°C° 0 mm 1 m/s 553 mmHg 92%
    04:00 +10°C° 0 mm 1 m/s 553 mmHg 92%
    05:00 +10°C° 0 mm 1 m/s 553 mmHg 91%
    06:00 +10°C° 0 mm 1 m/s 553 mmHg 90%
    07:00 +12°C° 0.1 mm 1 m/s 554 mmHg 86%
    08:00 +13°C° 0.1 mm 1 m/s 555 mmHg 82%
    09:00 +14°C° 0.1 mm 0 m/s 556 mmHg 78%
    10:00 +18°C° 0.3 mm 1 m/s 557 mmHg 73%
    11:00 +19°C° 0.3 mm 1 m/s 557 mmHg 69%
    12:00 +19°C° 0.3 mm 2 m/s 558 mmHg 64%
    13:00 +19°C° 0.6 mm 2 m/s 557 mmHg 67%
    14:00 +18°C° 0.6 mm 2 m/s 557 mmHg 69%
    15:00 +18°C° 0.6 mm 3 m/s 556 mmHg 72%
    16:00 +17°C° 0.3 mm 2 m/s 556 mmHg 78%
    17:00 +16°C° 0.3 mm 2 m/s 555 mmHg 84%
    18:00 +14°C° 0.3 mm 1 m/s 554 mmHg 90%
    19:00 +13°C° 0 mm 1 m/s 554 mmHg 91%
    20:00 +12°C° 0 mm 1 m/s 554 mmHg 93%
    21:00 +11°C° 0 mm 1 m/s 554 mmHg 95%
    22:00 +10°C° 0 mm 1 m/s 553 mmHg 95%
    23:00 +10°C° 0 mm 1 m/s 553 mmHg 95%

    Poimâine, 23 August, Vineri

    Timp Temperatura Precipitaţii Vânt Presiune Umiditate
    00:00 +10°C° 0 mm 1 m/s 553 mmHg 95%
    01:00 +10°C° 0 mm 1 m/s 553 mmHg 94%
    02:00 +10°C° 0 mm 1 m/s 553 mmHg 93%
    03:00 +10°C° 0 mm 1 m/s 553 mmHg 92%
    04:00 +10°C° 0 mm 1 m/s 553 mmHg 91%
    05:00 +9°C° 0 mm 1 m/s 552 mmHg 89%
    06:00 +9°C° 0 mm 1 m/s 552 mmHg 88%
    07:00 +12°C° 0 mm 1 m/s 554 mmHg 77%
    08:00 +15°C° 0 mm 1 m/s 556 mmHg 66%
    09:00 +19°C° 0 mm 1 m/s 558 mmHg 56%
    10:00 +19°C° 0 mm 2 m/s 558 mmHg 52%
    11:00 +19°C° 0 mm 2 m/s 559 mmHg 49%
    12:00 +20°C° 0 mm 3 m/s 559 mmHg 46%
    13:00 +20°C° 0.5 mm 3 m/s 558 mmHg 52%
    14:00 +19°C° 0.5 mm 3 m/s 557 mmHg 58%
    15:00 +18°C° 0.5 mm 3 m/s 556 mmHg 64%
    16:00 +17°C° 0.6 mm 2 m/s 556 mmHg 71%
    17:00 +16°C° 0.6 mm 2 m/s 555 mmHg 78%
    18:00 +14°C° 0.6 mm 1 m/s 554 mmHg 85%
    19:00 +13°C° 0.1 mm 1 m/s 554 mmHg 85%
    20:00 +11°C° 0.1 mm 1 m/s 554 mmHg 86%
    21:00 +10°C° 0.1 mm 1 m/s 553 mmHg 86%
    22:00 +10°C° 0 mm 1 m/s 553 mmHg 86%
    23:00 +10°C° 0 mm 1 m/s 553 mmHg 86%

    24 August, Sâmbătă

    Timp Temperatura Precipitaţii Vânt Presiune Umiditate
    00:00 +10°C° 0 mm 1 m/s 553 mmHg 86%
    01:00 +10°C° 0 mm 1 m/s 553 mmHg 86%
    02:00 +10°C° 0 mm 1 m/s 553 mmHg 87%
    03:00 +10°C° 0 mm 1 m/s 552 mmHg 87%
    04:00 +9°C° 0 mm 1 m/s 552 mmHg 84%
    05:00 +9°C° 0 mm 1 m/s 552 mmHg 81%
    06:00 +9°C° 0 mm 1 m/s 552 mmHg 78%
    07:00 +12°C° 0 mm 1 m/s 554 mmHg 67%
    08:00 +15°C° 0 mm 1 m/s 556 mmHg 55%
    09:00 +19°C° 0 mm 1 m/s 558 mmHg 44%
    10:00 +20°C° 0 mm 1 m/s 559 mmHg 43%
    11:00 +20°C° 0 mm 2 m/s 559 mmHg 42%
    12:00 +21°C° 0 mm 3 m/s 559 mmHg 41%
    13:00 +21°C° 0.3 mm 3 m/s 558 mmHg 46%
    14:00 +20°C° 0.3 mm 3 m/s 558 mmHg 51%
    15:00 +19°C° 0.3 mm 3 m/s 557 mmHg 55%
    16:00 +18°C° 0.1 mm 2 m/s 556 mmHg 64%
    17:00 +16°C° 0.1 mm 2 m/s 555 mmHg 73%
    18:00 +15°C° 0.1 mm 1 m/s 554 mmHg 82%
    19:00 +13°C° 0.1 mm 1 m/s 554 mmHg 85%
    20:00 +12°C° 0.1 mm 1 m/s 554 mmHg 88%
    21:00 +11°C° 0.1 mm 1 m/s 554 mmHg 91%
    22:00 +10°C° 0 mm 1 m/s 553 mmHg 88%
    23:00 +10°C° 0 mm 1 m/s 553 mmHg 86%

    25 August, Duminică

    Timp Temperatura Precipitaţii Vânt Presiune Umiditate
    00:00 +9°C° 0 mm 1 m/s 553 mmHg 84%
    01:00 +9°C° 0 mm 1 m/s 552 mmHg 80%
    02:00 +9°C° 0 mm 1 m/s 552 mmHg 75%
    03:00 +9°C° 0 mm 1 m/s 551 mmHg 70%
    04:00 +9°C° 0 mm 1 m/s 551 mmHg 70%
    05:00 +9°C° 0 mm 1 m/s 551 mmHg 70%
    06:00 +9°C° 0 mm 1 m/s 552 mmHg 70%
    07:00 +12°C° 0 mm 1 m/s 554 mmHg 62%
    08:00 +15°C° 0 mm 1 m/s 556 mmHg 55%
    09:00 +19°C° 0 mm 1 m/s 558 mmHg 48%
    10:00 +19°C° 0 mm 2 m/s 558 mmHg 47%
    11:00 +20°C° 0 mm 2 m/s 558 mmHg 47%
    12:00 +21°C° 0 mm 3 m/s 558 mmHg 46%
    13:00 +20°C° 0.3 mm 3 m/s 557 mmHg 53%
    14:00 +19°C° 0.3 mm 3 m/s 556 mmHg 59%
    15:00 +18°C° 0.3 mm 3 m/s 556 mmHg 66%
    16:00 +17°C° 0.4 mm 2 m/s 555 mmHg 74%
    17:00 +15°C° 0.4 mm 2 m/s 554 mmHg 83%
    18:00 +14°C° 0.4 mm 1 m/s 553 mmHg 91%
    19:00 +13°C° 0.1 mm 1 m/s 553 mmHg 92%
    20:00 +12°C° 0.1 mm 1 m/s 553 mmHg 93%
    21:00 +11°C° 0.1 mm 1 m/s 553 mmHg 94%
    22:00 +11°C° 0 mm 1 m/s 553 mmHg 94%
    23:00 +10°C° 0 mm 1 m/s 552 mmHg 94%

    26 August, Luni

    Timp Temperatura Precipitaţii Vânt Presiune Umiditate
    00:00 +10°C° 0 mm 1 m/s 552 mmHg 94%
    01:00 +10°C° 0 mm 1 m/s 552 mmHg 92%
    02:00 +10°C° 0 mm 1 m/s 551 mmHg 91%
    03:00 +9°C° 0 mm 1 m/s 551 mmHg 89%
    04:00 +9°C° 0 mm 1 m/s 551 mmHg 87%
    05:00 +9°C° 0 mm 1 m/s 551 mmHg 85%
    06:00 +9°C° 0 mm 1 m/s 551 mmHg 84%
    07:00 +12°C° 0 mm 1 m/s 553 mmHg 75%
    08:00 +14°C° 0 mm 1 m/s 555 mmHg 66%
    09:00 +18°C° 0 mm 1 m/s 557 mmHg 56%
    10:00 +19°C° 0 mm 1 m/s 557 mmHg 54%
    11:00 +20°C° 0 mm 2 m/s 557 mmHg 51%
    12:00 +21°C° 0 mm 2 m/s 558 mmHg 48%
    13:00 +19°C° 0.8 mm 2 m/s 557 mmHg 58%
    14:00 +18°C° 0.8 mm 2 m/s 555 mmHg 68%
    15:00 +18°C° 0.8 mm 1 m/s 554 mmHg 77%
    16:00 +15°C° 1.6 mm 1 m/s 554 mmHg 83%
    17:00 +14°C° 1.6 mm 1 m/s 553 mmHg 88%
    18:00 +13°C° 1.6 mm 1 m/s 553 mmHg 93%
    19:00 +12°C° 0.6 mm 1 m/s 553 mmHg 91%
    20:00 +12°C° 0.6 mm 1 m/s 553 mmHg 90%
    21:00 +11°C° 0.6 mm 1 m/s 553 mmHg 89%
    22:00 +11°C° 0.2 mm 1 m/s 553 mmHg 90%
    23:00 +11°C° 0.2 mm 1 m/s 553 mmHg 91%
    Arată mai mult